Location: Biltmore Gardens
(41.6070°N, 83.4666°W)
Time: 14:48:11
(UTC+00:00)

Elektron 1 - Pass Details

Date: 14 July 2020
Orbit: 405 x 6310 km, 60.8° (Epoch: 12 August)

Event Time Altitude Azimuth Distance (km) Brightness Sun altitude
Rises 02:47:26 0° 222° (SW) 2,325 7.5 -15.2°
Reaches altitude 10° 02:49:14 10° 224° (SW) 1,465 6.4 -15.5°
Maximum altitude 02:52:06 76° 310° (NW) 486 4.1 -15.8°
Drops below altitude 10° 02:56:18 10° 37° (NE) 2,138 7.5 -16.3°
Sets 02:59:28 0° 39° (NE) 3,600 8.6 -16.7°
